This is the latest recevied weather packets stored in our database for station/object N7IGG. If no packets are shown the sender has not sent any weather packets the latest 10 day(s).
| Time | Temp. | Humidity | Pressure | Rain* | Wind** | Luminosity | Snow |
|---|---|---|---|---|---|---|---|
| 1777507147 | 18.33° C | 60% | 1022.7 hPa | 0 mm | - | 415 W/m² | - |
| 1777506845 | 18.33° C | 62% | 1022.5 hPa | 0 mm | - | 431 W/m² | - |
| 1777506541 | 17.78° C | 62% | 1022.7 hPa | 0 mm | - | 475 W/m² | - |
| 1777506236 | 18.33° C | 63% | 1022.7 hPa | 0 mm | - | 451 W/m² | - |
| 1777505934 | 18.33° C | 64% | 1022.8 hPa | 0 mm | - | 354 W/m² | - |
| 1777505629 | 17.78° C | 64% | 1022.8 hPa | 0 mm | - | 436 W/m² | - |
| 1777505326 | 17.78° C | 64% | 1022.9 hPa | 0 mm | - | 393 W/m² | - |
| 1777505023 | 18.33° C | 63% | 1022.8 hPa | 0 mm | - | 459 W/m² | - |
| 1777504720 | 17.78° C | 62% | 1022.9 hPa | 0 mm | - | 495 W/m² | - |
| 1777504417 | 17.78° C | 62% | 1023 hPa | 0 mm | - | 498 W/m² | - |
| 1777504112 | 17.78° C | 62% | 1022.8 hPa | 0 mm | - | 526 W/m² | - |
| 1777503808 | 17.78° C | 62% | 1022.9 hPa | 0 mm | - | 345 W/m² | - |
| 1777503505 | 17.78° C | 62% | 1023 hPa | 0 mm | - | 566 W/m² | - |
| 1777503201 | 17.78° C | 62% | 1023.2 hPa | 0 mm | - | 576 W/m² | - |
| 1777502898 | 17.78° C | 61% | 1022.9 hPa | 0 mm | - | 598 W/m² | - |
| 1777502596 | 17.22° C | 63% | 1023.3 hPa | 0 mm | - | 493 W/m² | - |
| 1777502293 | 17.78° C | 60% | 1023.2 hPa | 0 mm | - | 555 W/m² | - |
| 1777501989 | 17.22° C | 60% | 1023.1 hPa | 0 mm | - | 535 W/m² | - |
| 1777501686 | 17.78° C | 60% | 1023.2 hPa | 0 mm | - | 292 W/m² | - |
| 1777501383 | 17.78° C | 61% | 1023.3 hPa | 0 mm | - | 530 W/m² | - |
| 1777501081 | 17.78° C | 61% | 1023.6 hPa | 0 mm | - | 629 W/m² | - |
| 1777500779 | 17.78° C | 61% | 1023.5 hPa | 0 mm | - | 650 W/m² | - |
| 1777500476 | 17.78° C | 62% | 1023.4 hPa | 0 mm | - | 646 W/m² | - |
| 1777500171 | 17.22° C | 62% | 1023.6 hPa | 0 mm | - | 634 W/m² | - |
| 1777499869 | 17.78° C | 62% | 1023.6 hPa | 0 mm | - | 661 W/m² | - |
* Rain latest hour (hover to see other rain measurements)
** Current wind speed in m/s (hover to see current wind gust speed)